Triuchirapalli, India

11:47 PM IST on June 28, 2017 (GMT +0530)
Tiruchirappalli

Weather History for VOTR - August, 2013

Change the Weather History Date:

Tuesday, August 27, 2013

  Actual Average Record
Temperature  
Mean Temperature 89 °F -  
Max Temperature 98 °F 91 °F 99 °F (2015)
Min Temperature 80 °F 78 °F 73 °F (2008)
Cooling Degree Days 24    
Growing Degree Days 39 (Base 50)    
Moisture  
Dew Point 72 °F    
Average Humidity 62    
Maximum Humidity 84    
Minimum Humidity 29    
Precipitation  
Precipitation 0.00 in - - ()
Sea Level Pressure  
Sea Level Pressure 29.72 in    
Wind  
Wind Speed 5 mph ()    
Max Wind Speed 16 mph    
Max Gust Speed -    
Visibility 3.2 miles    
Events Thunderstorm    
Averages and records for this station are not official NWS values.
T = Trace of Precipitation, MM = Missing Value Source: Averaged Metar Reports

Daily Weather History Graph

Daily Weather History Graph

Search for Another Location

Airport or City:

Trip Planner

Search our weather history database for the weather conditions in past years. The results will help you decide how hot, cold, wet, or windy it might be!

Date:

Astronomy

Aug. 27, 2013 Rise Set
Actual Time 6:05 AM IST 6:27 PM IST
Civil Twilight 5:44 AM IST 6:49 PM IST
Nautical Twilight 5:19 AM IST 7:13 PM IST
Astronomical Twilight 4:54 AM IST 7:39 PM IST
Moon 11:18 PM IST (8/27) 11:21 AM IST (8/27)
Length of Visible Light 13h 04m
Length of Day
12h 22m
Waning Gibbous, 61% of the Moon is Illuminated
Aug 27
Waning Gibbous
Aug 28
Last Quarter
Sep 5
New
Sep 12
First Quarter
Sep 19
Full

Hourly Weather History & Observations

Time (IST) Temp. Heat Index Dew Point Humidity Pressure Visibility Wind Dir Wind Speed Gust Speed Precip Events Conditions
12:10 AM 80.6 °F 86.2 °F 75.2 °F 84% 29.77 in 3.1 mi ESE 6.9 mph - N/A   Haze
12:40 AM 80.6 °F 86.2 °F 75.2 °F 84% 29.74 in 3.1 mi Variable 3.5 mph - N/A   Haze
1:10 AM 80.6 °F 86.2 °F 75.2 °F 84% 29.74 in 3.1 mi Calm Calm - N/A   Haze
1:40 AM 80.6 °F 86.2 °F 75.2 °F 84% 29.74 in 3.1 mi Calm Calm - N/A   Haze
2:10 AM 80.6 °F 86.2 °F 75.2 °F 84% 29.74 in 3.1 mi Calm Calm - N/A   Haze
2:30 AM 81 °F - 75 °F 78% 29.73 in 1 mi Calm Calm - -   Haze
2:40 AM 80.6 °F 86.2 °F 75.2 °F 84% 29.74 in 3.1 mi Variable 2.3 mph - N/A   Haze
3:10 AM 80.6 °F 86.2 °F 75.2 °F 84% 29.71 in 3.1 mi Calm Calm - N/A   Haze
3:40 AM 80.6 °F 86.2 °F 75.2 °F 84% 29.71 in 3.1 mi Calm Calm - N/A   Haze
4:10 AM 80.6 °F 86.2 °F 75.2 °F 84% 29.71 in 3.1 mi West 3.5 mph - N/A   Haze
4:40 AM 80.6 °F 86.2 °F 75.2 °F 84% 29.71 in 3.1 mi West 5.8 mph - N/A   Haze
5:10 AM 80.6 °F 86.2 °F 75.2 °F 84% 29.71 in 3.1 mi WNW 4.6 mph - N/A   Haze
5:30 AM 80 °F - 72 °F 71% 29.73 in 1 mi WNW 4.6 mph - -   Haze
5:40 AM 80.6 °F 85.4 °F 73.4 °F 79% 29.74 in 3.1 mi WNW 3.5 mph - N/A   Haze
6:10 AM 80.6 °F 85.4 °F 73.4 °F 79% 29.74 in 3.1 mi WNW 4.6 mph - N/A   Haze
6:40 AM 80.6 °F 85.4 °F 73.4 °F 79% 29.74 in 3.1 mi West 2.3 mph - N/A   Haze
7:10 AM 82.4 °F 88.2 °F 73.4 °F 74% 29.74 in 3.1 mi West 3.5 mph - N/A   Haze
7:40 AM 82.4 °F 87.2 °F 71.6 °F 70% 29.77 in 3.1 mi West 5.8 mph - N/A   Haze
8:10 AM 84.2 °F 89.6 °F 71.6 °F 66% 29.77 in 3.1 mi West 11.5 mph - N/A   Haze
8:40 AM 84.2 °F 89.6 °F 71.6 °F 66% 29.77 in 3.1 mi West 9.2 mph - N/A   Haze
9:10 AM 84.2 °F 89.6 °F 71.6 °F 66% 29.77 in 3.1 mi West 9.2 mph - N/A   Haze
9:40 AM 86.0 °F 91.8 °F 71.6 °F 62% 29.77 in 3.1 mi West 13.8 mph - N/A   Haze
10:40 AM 87.8 °F 95.6 °F 73.4 °F 62% 29.77 in 3.7 mi WNW 9.2 mph - N/A   Partly Cloudy
11:10 AM 91.4 °F 98.4 °F 71.6 °F 52% 29.77 in 3.7 mi West 11.5 mph - N/A   Partly Cloudy
11:30 AM 92 °F - 71 °F 41% 29.74 in 2 mi WSW 9.2 mph - -   Haze
11:40 AM 91.4 °F 98.4 °F 71.6 °F 52% 29.74 in 3.7 mi West 9.2 mph - N/A   Partly Cloudy
12:10 PM 93.2 °F 100.5 °F 71.6 °F 49% 29.74 in 3.7 mi WNW 6.9 mph - N/A   Partly Cloudy
12:40 PM 93.2 °F 98.8 °F 69.8 °F 46% 29.71 in 3.7 mi WNW 6.9 mph - N/A   Partly Cloudy
1:10 PM 95.0 °F 99.5 °F 68.0 °F 41% 29.71 in 3.7 mi West 9.2 mph - N/A   Partly Cloudy
1:40 PM 96.8 °F 103.1 °F 69.8 °F 41% 29.68 in 3.7 mi West 9.2 mph - N/A   Scattered Clouds
2:10 PM 98.6 °F 105.5 °F 69.8 °F 39% 29.68 in 3.7 mi WNW 8.1 mph - N/A   Scattered Clouds
2:30 PM 98 °F - 68 °F 29% 29.67 in 2 mi WNW 6.9 mph - -   Haze
2:40 PM 98.6 °F 105.5 °F 69.8 °F 39% 29.68 in 3.7 mi NW 5.8 mph - N/A   Scattered Clouds
3:10 PM 98.6 °F 105.5 °F 69.8 °F 39% 29.65 in 3.7 mi NW 9.2 mph - N/A   Partly Cloudy
3:40 PM 98.6 °F 104.1 °F 68.0 °F 37% 29.65 in 3.7 mi NW 9.2 mph - N/A   Partly Cloudy
4:10 PM 98.6 °F 104.1 °F 68.0 °F 37% 29.65 in 3.7 mi NW 6.9 mph - N/A   Partly Cloudy
4:40 PM 98.6 °F 105.5 °F 69.8 °F 39% 29.65 in 3.7 mi NW 5.8 mph - N/A   Scattered Clouds
5:10 PM 98.6 °F 105.5 °F 69.8 °F 39% 29.65 in 3.7 mi NW 5.8 mph - N/A   Scattered Clouds
5:40 PM 96.8 °F 103.1 °F 69.8 °F 41% 29.65 in 3.7 mi WNW 2.3 mph - N/A   Scattered Clouds
6:10 PM 96.8 °F 103.1 °F 69.8 °F 41% 29.65 in 3.7 mi Calm Calm - N/A   Scattered Clouds
6:40 PM 95.0 °F 101.3 °F 69.8 °F 44% 29.65 in 3.7 mi East 4.6 mph - N/A   Scattered Clouds
7:10 PM 93.2 °F 100.5 °F 71.6 °F 49% 29.68 in 3.7 mi East 9.2 mph - N/A   Mostly Cloudy
7:40 PM 91.4 °F 98.4 °F 71.6 °F 52% 29.68 in 3.7 mi ENE 6.9 mph - N/A   Mostly Cloudy
8:10 PM 91.4 °F 98.4 °F 71.6 °F 52% 29.68 in 3.7 mi ENE 5.8 mph - N/A   Mostly Cloudy
8:30 PM 89 °F - 72 °F 47% 29.70 in 2 mi 2.3 mph - -   Partly Cloudy
8:40 PM 89.6 °F 96.2 °F 71.6 °F 55% 29.74 in 3.7 mi South 5.8 mph - N/A   Mostly Cloudy
9:10 PM 87.8 °F 95.6 °F 73.4 °F 62% 29.77 in 3.7 mi SSW 9.2 mph - N/A   Mostly Cloudy
9:40 PM 86.0 °F 93.4 °F 73.4 °F 66% 29.77 in 3.7 mi SSW 5.8 mph - N/A   Mostly Cloudy
10:10 PM 84.2 °F 90.9 °F 73.4 °F 70% 29.77 in 3.7 mi South 5.8 mph - N/A Thunderstorm Thunderstorm
10:40 PM 84.2 °F 90.9 °F 73.4 °F 70% 29.80 in 3.7 mi West 9.2 mph - N/A Thunderstorm Thunderstorm
11:10 PM 82.4 °F 88.2 °F 73.4 °F 74% 29.77 in 3.7 mi West 10.4 mph - N/A Thunderstorm Thunderstorm
11:30 PM 80 °F - 73 °F 74% 29.77 in 2 mi WSW 15.7 mph - - Thunderstorm Thunderstorm
11:40 PM 80.6 °F 85.4 °F 73.4 °F 79% 29.77 in 3.7 mi WSW 6.9 mph - N/A Thunderstorm Thunderstorm